Вернуться в каталог

STARLINK-34547

АктивенСвязьVLEO
NORAD 64777·PAYLOAD·🇺🇸 United States

Запущен Jul 8, 2025 с Cape Canaveral Space Force Station

Loading…

Ближайшие Пролёты (ближайшие 24 часа)

TLE

СвежийSource: CelesTrak SupGP

Эпоха: Sep 15, 2026, 02:27 UTC

1 64777C 25147Y   26258.10256944 -.00020295  00000+0 -59983-3 0  2588
2 64777  53.1578  78.6871 0001188  85.0851 206.6874 15.34389777    12

Отслеживайте STARLINK-34547 в реальном времени с AllMySat

Download on the App Store